User: anonymous   Login
Location: Newark
(51.2625°N, 13.3939°E)
Time: 05:16:18
(UTC+00:00)
Language:

Transit 2A Rocket - Orbit

View from above orbital plane
View from above orbital plane
View from above satellite
View from above satellite

Ground track
Ground track

The orbit data is extracted from the following two-line orbital elements,

1 00047U 60007C   21108.57454937  .00000025  00000-0  30841-4 0  9997
2 00047  66.6668  59.1186 0219983  79.6384 282.9435 14.42143844178677
Epoch (UTC): 18 April 2021 13:47:21
Eccentricity: 0.0219983
inclination: 66.6668°
perigee height: 594 km
apogee height: 908 km
right ascension of ascending node: 59.1186°
argument of perigee: 79.6384°
revolutions per day: 14.42143844
mean anomaly at epoch: 282.9435°
orbit number at epoch: 17867

The dashed part of the orbit path shows where the satellite is in the earth's shadow,  

DLR